Weather History for Eau Claire, WI

Change the Weather History Date:

Saturday, July 7, 2012

  Actual Average Record
Temperature  
Mean Temperature 74 °F 72 °F  
Max Temperature 85 °F 83 °F 105 °F (1936)
Min Temperature 63 °F 60 °F 44 °F (1997)
Degree Days  
Heating Degree Days 0 0  
Month to date heating degree days 0 2  
Since 1 June heating degree days 28 64  
Since 1 July heating degree days 0 2  
Cooling Degree Days 9 7  
Month to date cooling degree days 111 48  
Year to date cooling degree days 347 200  
Since 1 June cooling degree days 277 168  
Growing Degree Days 24 (Base 50)    
Moisture  
Dew Point 61 °F    
Average Humidity 70    
Maximum Humidity 100    
Minimum Humidity 40    
Precipitation  
Precipitation 0.00 in 0.12 in 1.35 in (1951)
Month to date precipitation 0.76 0.88  
Year to date precipitation 16.26 14.65  
Snow  
Snow 0.00 in 0.00 in 0.00 in ()
Month to date snowfall 0.0 0.0  
Since 1 June snowfall 0.0 0.0  
Since 1 July snowfall 0.0 0.0  
Snow Depth 0.00 in    
Sea Level Pressure  
Sea Level Pressure 30.05 in    
Wind  
Wind Speed 7 mph (NNE)    
Max Wind Speed 15 mph    
Max Gust Speed 20 mph    
Visibility 10 miles    
Events Thunderstorm    
T = Trace of Precipitation, MM = Missing Value Source: NWS Daily Summary

Daily Weather History Graph

Daily Weather History Graph

Search for Another Location

Airport:

Trip Planner

Search our weather history database for the weather conditions in past years. The results will help you decide how hot, cold, wet, or windy it might be!

Date:

Astronomy

Jul. 07, 2012 Rise Set
Actual Time 5:27 AM CDT 8:53 PM CDT
Civil Twilight 4:51 AM CDT 9:30 PM CDT
Nautical Twilight 4:03 AM CDT 10:17 PM CDT
Astronomical Twilight 3:02 AM CDT 11:18 PM CDT
Moon 10:57 PM CDT (7/7) 10:06 AM CDT (7/7)
Length of Visible Light 16h 38m
Length of Day
15h 25m
Waning Gibbous, 81% of the Moon is Illuminated
Jul 7
Waning Gibbous
Jul 10
Last Quarter
Jul 18
New
Jul 26
First Quarter
Aug 1
Full

Hourly Weather History & Observations

Time (CDT) Temp. Heat Index Dew Point Humidity Pressure Visibility Wind Dir Wind Speed Gust Speed Precip Events Conditions
12:28 AM 66.2 °F - 60.8 °F 83% 30.04 in 10.0 mi NNW 6.9 mph - N/A Thunderstorm Mostly Cloudy
12:56 AM 66.0 °F - 63.0 °F 90% 29.98 in 10.0 mi ENE 3.5 mph - 0.08 in   Mostly Cloudy
1:56 AM 64.9 °F - 64.0 °F 97% 29.97 in 10.0 mi Calm Calm - N/A   Clear
2:52 AM 66.2 °F - 64.4 °F 94% 29.98 in 10.0 mi Variable 3.5 mph - N/A   Scattered Clouds
2:56 AM 66.0 °F - 64.0 °F 93% 29.96 in 10.0 mi North 3.5 mph - N/A   Mostly Cloudy
3:56 AM 64.0 °F - 61.0 °F 90% 29.98 in 10.0 mi NNE 9.2 mph - N/A   Mostly Cloudy
4:56 AM 64.0 °F - 61.0 °F 90% 30.00 in 10.0 mi NNE 8.1 mph - N/A   Overcast
5:36 AM 64.4 °F - 60.8 °F 88% 30.04 in 10.0 mi NNE 8.1 mph - N/A   Overcast
5:56 AM 64.0 °F - 61.0 °F 90% 30.02 in 10.0 mi NNE 9.2 mph - N/A   Overcast
6:56 AM 64.9 °F - 61.0 °F 87% 30.04 in 10.0 mi NNE 8.1 mph - N/A   Overcast
7:56 AM 66.0 °F - 60.1 °F 81% 30.06 in 10.0 mi NNE 9.2 mph - N/A   Partly Cloudy
8:56 AM 70.0 °F - 60.1 °F 71% 30.06 in 10.0 mi NNE 12.7 mph - N/A   Clear
9:56 AM 72.0 °F - 60.1 °F 66% 30.09 in 10.0 mi NNE 8.1 mph - N/A   Clear
10:56 AM 75.9 °F - 61.0 °F 60% 30.08 in 10.0 mi NNE 8.1 mph - N/A   Clear
11:56 AM 78.1 °F - 59.0 °F 52% 30.09 in 10.0 mi NNE 8.1 mph - N/A   Clear
12:56 PM 81.0 °F 81.3 °F 59.0 °F 47% 30.08 in 10.0 mi NNE 9.2 mph 16.1 mph N/A   Clear
1:56 PM 82.0 °F 82.1 °F 59.0 °F 45% 30.09 in 10.0 mi North 5.8 mph - N/A   Clear
2:56 PM 82.9 °F 82.6 °F 57.9 °F 42% 30.08 in 10.0 mi NNE 10.4 mph 17.3 mph N/A   Clear
3:56 PM 84.0 °F 84.0 °F 60.1 °F 44% 30.07 in 10.0 mi NE 11.5 mph 17.3 mph N/A   Clear
4:56 PM 84.0 °F 83.5 °F 57.9 °F 41% 30.07 in 10.0 mi NNE 9.2 mph - N/A   Scattered Clouds
5:56 PM 84.0 °F 83.8 °F 59.0 °F 43% 30.06 in 10.0 mi NNE 9.2 mph - N/A   Mostly Cloudy
6:56 PM 82.9 °F 82.6 °F 57.9 °F 42% 30.06 in 10.0 mi North 8.1 mph - N/A   Partly Cloudy
7:56 PM 80.1 °F 80.7 °F 59.0 °F 48% 30.08 in 10.0 mi Calm Calm - N/A   Clear
8:56 PM 75.0 °F - 61.0 °F 62% 30.09 in 10.0 mi Calm Calm - N/A   Clear
9:56 PM 71.1 °F - 62.1 °F 73% 30.10 in 10.0 mi North 4.6 mph - N/A   Clear
10:56 PM 68.0 °F - 61.0 °F 78% 30.10 in 10.0 mi Calm Calm - N/A   Clear
11:56 PM 66.9 °F - 61.0 °F 81% 30.11 in 10.0 mi Calm Calm - N/A   Clear